Back to catalog

STARLINK-32220

AliveCommunicationsVLEO
NORAD 60370·PAYLOAD·🇺🇸 United States

Launched Aug 4, 2024 from Vandenberg Space Force Base

Loading…

Next Passes (next 24 hours)

TLE

FreshSource: CelesTrak SupGP

Epoch: Sep 14, 2026, 13:53 UTC

1 60370C 24138R   26257.57895833  .00064365  00000+0  19031-2 0  2570
2 60370  53.1595 151.6493 0001133  93.5202 337.8840 15.34335534    14

Track STARLINK-32220 in real time with AllMySat

Download on the App Store